Flag for Germany Past Weather in Brandenburg an der Havel, Brandenburg, Germany — Yesterday and Last 2 Weeks

Now
64 °F

Passing clouds.


Feels Like: 64 °F
Forecast: 52 / 73 °F
Wind: 7 mph from Northwest

Location: Berlin-Tegel

Current Time: Aug 29, 2016 at 10:05:55 PM

Latest Report: Aug 29, 2016 at 9:20 PM


Visibility: N/A

Pressure: 30.09 "Hg

Humidity: 64%

Dew Point: 52 °F

Location of Brandenburg an der HavelLocation

Past Weather in Brandenburg an der Havel — Graph

°F

Brandenburg an der Havel Temperature Yesterday

Maximum temperature yesterday: 95 °F (at 3:20 PM)
Minimum temperature yesterday: 64 °F (at 5:20 AM)
Average temperature yesterday: 78 °F

High & Low Weather Summary for the Past Weeks

 TemperatureHumidityPressure
High95 °F (Aug 28, 3:20 PM)100% (Aug 17, 3:50 AM)30.33 "Hg (Aug 17, 3:50 AM)
Low46 °F (Aug 17, 5:50 AM)12% (Aug 26, 4:20 PM)29.80 "Hg (Aug 18, 4:20 PM)
Average68 °F64%30.06 "Hg
* Reported Aug 14 8:20 PM — Aug 29 8:50 PM, Brandenburg an der Havel, Weather by CustomWeather, © 2016

Note: Actual official high and low records may vary slightly from our data, if they occured in-between our weather recording intervals... More about our weather records

Advertising

Brandenburg an der Havel Weather History for the Previous 24 Hours

Scroll right to see more
 ConditionsComfort  
Time TempWeatherWind HumidityBarometerVisibility
8:50 PM
Mon, Aug 29
66 °FPassing clouds.8 mph60%30.07 "HgN/A
8:20 PM68 °FPartly sunny.9 mph53%30.07 "HgN/A
7:50 PM68 °FPartly sunny.7 mph56%30.07 "HgN/A
7:20 PM68 °FScattered clouds.8 mph53%30.04 "HgN/A
6:50 PM68 °FScattered clouds.7 mph64%30.04 "HgN/A
6:20 PM70 °FScattered clouds.12 mph60%30.04 "HgN/A
5:50 PM70 °FScattered clouds.13 mph64%30.01 "HgN/A
5:20 PM70 °FPartly sunny.12 mph64%30.01 "HgN/A
4:50 PM70 °FPartly sunny.13 mph64%30.01 "HgN/A
4:20 PM70 °FScattered clouds.10 mph60%30.01 "HgN/A
3:50 PM70 °FScattered clouds.10 mph69%30.01 "HgN/A
3:20 PM68 °FPartly sunny.13 mph69%30.01 "HgN/A
2:50 PM72 °FScattered clouds.13 mph53%29.98 "HgN/A
2:20 PM73 °FScattered clouds.15 mph50%29.98 "HgN/A
1:50 PM72 °FPartly sunny.14 mph53%29.98 "HgN/A
1:20 PM72 °FPartly sunny.14 mph57%29.98 "HgN/A
12:50 PM70 °FBroken clouds.13 mph60%29.98 "HgN/A
12:20 PM70 °FPartly sunny.12 mph60%29.98 "HgN/A
11:50 AM70 °FBroken clouds.18 mph60%29.98 "HgN/A
11:20 AM70 °FScattered clouds.16 mph60%29.98 "HgN/A
10:50 AM70 °FBroken clouds.14 mph60%29.95 "HgN/A
10:20 AM68 °FPartly sunny.15 mph64%29.95 "HgN/A
9:50 AM68 °FPartly sunny.15 mph64%29.95 "HgN/A
9:20 AM68 °FScattered clouds.15 mph64%29.95 "HgN/A
8:50 AM68 °FPassing clouds.14 mph64%29.95 "HgN/A
8:20 AM66 °FScattered clouds.10 mph68%29.95 "HgN/A
7:50 AM66 °FPartly sunny.9 mph68%29.95 "HgN/A
7:20 AM64 °FSunny.12 mph73%29.92 "Hg10 mi
6:50 AM64 °FClear.12 mph78%29.92 "Hg10 mi
6:20 AM64 °FClear.10 mph78%29.92 "Hg10 mi
5:50 AM66 °FClear.9 mph73%29.92 "Hg10 mi
5:20 AM66 °FClear.7 mph73%29.92 "Hg10 mi
4:50 AM66 °FClear.7 mph73%29.92 "Hg10 mi
4:20 AM68 °FClear.7 mph69%29.92 "Hg10 mi
3:50 AM68 °FPassing clouds.7 mph73%29.92 "HgN/A
3:20 AM68 °FPassing clouds.9 mph73%29.92 "HgN/A
2:50 AM68 °FPassing clouds.9 mph73%29.92 "HgN/A
2:20 AM68 °FPartly cloudy.10 mph78%29.92 "HgN/A
1:50 AM70 °FPartly cloudy.12 mph73%29.92 "HgN/A
1:20 AM70 °FClear.8 mph78%29.92 "Hg10 mi
12:50 AM68 °FClear.8 mph83%29.89 "Hg10 mi
12:20 AM70 °FPassing clouds.3 mph83%29.89 "HgN/A
11:50 PM
Sun, Aug 28
70 °FThundershowers. Passing clouds.3 mph83%29.89 "HgN/A
11:20 PM72 °FSprinkles. Partly cloudy.2 mph73%29.89 "HgN/A
10:50 PM75 °FThunderstorms. Partly cloudy.7 mph57%29.89 "HgN/A
10:20 PM77 °FThundershowers. Partly cloudy.10 mph54%29.89 "HgN/A
Weather by CustomWeather, © 2016

See weather overviewHow to use our weather pages